www.pogodaiklimat.ru

Погода и климат >> Архив погоды >> Россия >> Калмыкия >> Малые Дербеты


ПОГОДА в Малых Дербетах

  • Прогноз погоды в Малых Дербетах
  • Монитор погоды в Малых Дербетах
  • Климат города

АРХИВ ПОГОДЫ в Малых Дербетах

Время (UTC), дата Ветер
(напр.,м/с)
 
Видим.   Явления Облачность Т
(С)
Тd
(С)
f
(%)
Тe
(С)
Тes
(С)
Комфортность P
(гПа)
Po
(гПа)
Тmin
(С)
Tmax
(С)
R
(мм)
R24
(мм)
S
(см)
18 18.05 Ю 1 20 км 10/0
[Ci fib]
+24.9 +0.1 20 +23 +23 комфорт 1013.4 1012.4
21 18.05 Ю 2 20 км 10/0
[Ci fib]
+21.8 +0.8 25 +21 +21 комфорт 1013.6 1012.5
00 19.05 З 4 20 км 9/0
[Ac As]
+21.6 +10.9 51 +23 +23 комфорт 1014.3 1013.3
03 19.05 З 3 20 км 9/3 600 м
[Cb cap Ac As]
+20.1 +12.9 63 +22 +23 комфорт 1013.5 1012.4 +19.3
06 19.05 З 2 20 км {ливн. осадки} 8/0
[Ac trans]
+24.7 +13.3 49 +27 +32 жарко 1014.6 1013.6
09 19.05 ЮЗ 2 20 км 10/3 600 м
[Cu med, cong Ci sp]
+29.6 +10.0 30 +30 +40 жарко 1014.2 1013.2
12 19.05 ЮЗ 5 20 км пыльный позёмок 10/3 600 м
[Cu med, cong Ci fib]
+30.0 +8.6 26 +29 +33 жарко 1013.2 1012.2
15 19.05 ЮЗ 2 20 км 10/3 600 м
[Cu med, cong Ci fib]
+28.9 +7.4 26 +28 +29 жарко 1013.1 1012.1 +32.0 0.0
18 19.05 ЮЗ 1 20 км 10/0
[Cs]
+21.9 +10.2 47 +24 +24 комфорт 1014.2 1013.1
21 19.05 З 1 20 км ясно +18.4 +10.9 62 +20 +20 1014.3 1013.2
00 20.05 З 1 20 км 10/0
[Ci fib]
+16.5 +10.7 69 +17 +17 1014.4 1013.3
03 20.05 штиль 0 20 км 10/0
[Cs]
+19.7 +11.7 60 +21 +23 комфорт 1014.9 1013.9 +15.7
06 20.05 В 2 20 км 10/3 600 м
[Cu hum Ci sp]
+26.8 +10.4 36 +28 +34 жарко 1016.0 1014.9
09 20.05 ЮВ 3 20 км 10/3 600 м
[Cu med, cong Ac cast Ci sp]
+29.6 +9.9 29 +29 +35 жарко 1015.3 1014.3
12 20.05 В 2 20 км 10/3 600 м
[Cu med, cong Ac trans]
+28.5 +8.3 28 +28 +31 жарко 1014.4 1013.3
15 20.05 ЮВ 3 20 км 8/3 600 м
[Cu med, cong Ac cast Ci fib]
+28.9 +8.8 28 +28 +29 жарко 1013.2 1012.2 +30.3
18 20.05 ЮВ 2 20 км 10/0
[Ac lent Ci fib]
+23.4 +11.3 47 +26 +26 жарко 1014.7 1013.7
21 20.05 штиль 0 20 км 6/0
[Ci fib]
+18.3 +12.3 68 +19 +19 1014.4 1013.3
00 21.05 В 1 20 км 8/0
[Ci fib]
+16.4 +11.2 71 +17 +17 1014.2 1013.1
03 21.05 СЗ 1 20 км 10/0
[Ci fib]
+18.2 +11.1 63 +20 +21 1014.3 1013.3 +14.6
06 21.05 СВ 2 20 км 10/0
[Ac trans Ci fib]
+25.1 +9.1 36 +26 +33 жарко 1015.3 1014.3
09 21.05 В 2 20 км 10/0
[Ac trans Ci fib]
+29.2 +6.1 23 +28 +39 жарко 1014.6 1013.6
12 21.05 З 2 20 км 10/3 600 м
[Cu hum Cs]
+31.6 +4.5 18 +29 +36 жарко 1013.9 1012.8
15 21.05 СЗ 6 20 км пыльный позёмок 10/0
[As trans]
+26.9 +13.1 43 +29 +29 жарко 1014.2 1013.2 +32.3
18 21.05 СЗ 4
{13}
20 км 10/0
[Ac lent Cs]
+23.4 +13.4 53 +27 +27 душно 1015.7 1014.6
21 21.05 СЗ 3 20 км 8/0
[Ac As]
+21.7 +14.0 62 +25 +25 комфорт 1016.1 1015.0
00 22.05 СЗ 2 20 км 10/0
[Ac cast Cs]
+20.4 +15.5 73 +24 +24 комфорт 1016.5 1015.5
03 22.05 СЗ 2 20 км 10/0
[Ac trans Ci fib]
+20.3 +13.6 65 +23 +24 комфорт 1017.8 1016.8 +19.1
06 22.05 В 2 20 км 10/0
[Ac cast Ci fib]
+25.3 +10.8 40 +26 +32 жарко 1019.2 1018.2
09 22.05 В 4 20 км 8/0
[Ac trans]
+28.7 +10.4 32 +29 +35 жарко 1019.7 1018.7
12 22.05 ЮЗ 2 20 км 10/3 600 м
[Cu hum Ac As]
+30.0 +11.8 33 +31 +33 жарко 1019.5 1018.5
15 22.05 СЗ 1 20 км 10/0
[Ac cast Ci sp]
+27.9 +12.8 39 +29 +30 жарко 1019.5 1018.4 +32.0
18 22.05 СЗ 2 20 км 10/0
[Ac und Ci fib]
+24.5 +15.4 57 +27 +27 жарко 1020.0 1018.9
21 22.05 С 1 20 км 9/0
[Ac und]
+22.4 +5.8 34 +23 +23 комфорт 1020.5 1019.4
00 23.05 штиль 0 20 км 6/0
[Ac trans]
+17.3 +8.4 56 +17 +17 1021.3 1020.2
03 23.05 СВ 1 20 км 9/0
[Ac und]
+18.9 +8.2 50 +21 +21 комфорт 1021.6 1020.5 +15.9
06 23.05 В 3 20 км 8/0
[Ci sp]
+28.0 +7.4 27 +27 +35 жарко 1021.6 1020.6
09 23.05 В 4 20 км 10/0
[Ci fib]
+34.6 +5.1 16 +32 +42 жарко 1020.1 1019.1
12 23.05 В 6-11
{12}
20 км пыльный позёмок 8/3 600 м
[Cu med, cong Ci fib]
+36.2 +3.7 13 +33 +36 жарко 1017.8 1016.8
15 23.05 В 4
{13}
20 км 10/3 600 м
[Cu med, cong Ci fib]
+33.8 +3.1 14 +31 +31 жарко 1016.2 1015.2 +36.9
18 23.05 ЮВ 5 20 км 10/0
[Ci fib]
+29.5 +6.0 23 +28 +28 жарко 1017.0 1015.9
21 23.05 ЮВ 2 20 км 3/0
[Ci fib]
+23.0 +9.5 42 +25 +25 комфорт 1017.5 1016.4
00 24.05 С 1 20 км 10/0
[Ci fib]
+17.2 +11.8 71 +18 +18 1016.1 1015.0
03 24.05 СВ 1 20 км 10/0
[Ci fib]
+20.3 +11.6 57 +23 +25 комфорт 1015.1 1014.1 +16.1
06 24.05 ЮВ 4 20 км 3/0
[Ci fib]
+29.2 +7.9 26 +28 +36 жарко 1014.2 1013.2
09 24.05 ЮВ 8 20 км пыльный позёмок 3/0
[Ci fib]
+35.4 -3.3 8 +31 +34 жарко 1011.5 1010.5
12 24.05 Ю 7-13
{16}
20 км пыльный позёмок 3/0
[Ci fib]
+36.8 +3.1 12 +34 +37 очень
жарко
1009.4 1008.4
15 24.05 Ю 3
{14}
20 км 6/0
[Ci fib]
+34.9 +4.3 15 +32 +33 жарко 1008.6 1007.6 +36.9
18 24.05 З 2 20 км ясно +26.7 +13.1 43 +28 +28 жарко 1009.7 1008.6
21 24.05 ЮВ 1 20 км 4/0
[Ci fib]
+21.1 +13.7 63 +24 +24 комфорт 1009.9 1008.8
00 25.05 З 3 20 км 10/0
[Ci fib]
+20.8 +12.8 60 +24 +24 комфорт 1009.2 1008.2
03 25.05 ЮВ 1 20 км 10/0
[Ac trans Ci fib]
+21.4 +14.3 64 +24 +25 комфорт 1009.2 1008.2 +19.3
06 25.05 штиль 0 20 км 10/0
[As op]
+27.4 +14.1 44 +30 +33 жарко 1008.8 1007.8
09 25.05 СЗ 2 20 км 10/0
[Ac trans Ci fib]
+29.9 +12.1 33 +31 +41 жарко 1008.8 1007.8
12 25.05 З 2 20 км 4/4 1000 м
[Cu hum]
+32.6 +11.1 27 +32 +39 жарко 1007.9 1006.9

 

Местоположение метеостанции Малые Дербеты (Калмыкия, Россия): широта 47.93 долгота 44.70 высота над уровнем моря 9 м.

В архиве по умолчанию представлена погода в Малых Дербетах за последнюю неделю. Архивные данные за месяц целиком и за предыдущие месяцы, начиная с января 2011 года, Вы можете получить, выбрав интересующий диапазон дат из раскрывающегося списка и нажав кнопку "Ввод!".


*Определитесь, кто Вы:
робот инопланетянин человек

Внимание! Время в таблицах - всемирное. Для получения местного времени необходимо прибавить поправку, которая в Малых Дербетах равна 3 ч.

Смотрите также архив погоды в соседних городах и на ближайших метеорологических станциях:

Погода в Кетченерах (Калмыкия, Россия) (69 км)
Погода в Волгограде город (Волгоградская область, Россия) (84 км)
Погода в Волгограде (Волгоградская область, Россия) (98 км)
Погода в Черный Яр (Астраханская область, Россия) (107 км)
Погода в Котельниково (Волгоградская область, Россия) (121 км)
Погода в Калаче-на-Дону (Волгоградская область, Россия) (123 км)
Погода в Нижнем Чире (Волгоградская область, Россия) (125 км)
Погода в Юсте (Калмыкия, Россия) (151 км)
Погода в Верхнем Баскунчаке (Астраханская область, Россия) (154 км)
Погода в Иловле (Волгоградская область, Россия) (161 км)

Пояснения к столбцам:

Ветер - указаны скорость ветра в м/с - средняя за 10 мин, порывы в срок и между сроками (в фигурных скобках) и направление, откуда дует ветер: С - северный, СВ - северо-восточный, В - восточный, ЮВ - юго-восточный, Ю - южный, ЮЗ - юго-западный, З - западный, СЗ - северо-западный.
Видимость - горизонтальная дальность видимости в метрах или километрах. При видимости от 1 до 10 км при отсутствии осадков обычно наблюдается дымка, при ухудшении видимости до 1 км и менее - туман. В сухую погоду видимость может ухудшаться дымом, пылью или мглою.
Явления - указаны атмосферные явления, наблюдавшиеся в срок или в последний час перед сроком; фигурными скобками обозначены явления, наблюдавшиеся между сроками (за 1-3 часа до срока); квадратными скобками обозначены град или гололедные отложения с указанием их диаметра в мм.
Облачность - указаны через наклонную черту общая и нижняя облачность в баллах и высота нижней границы облаков в метрах; квадратными скобками обозначены формы облаков: Ci - перистые, Cs - перисто-слоистые, Cc - перисто-кучевые, Ac - высококучевые, As - высокослоистые, Sc - слоисто-кучевые, Ns - слоисто-дождевые, Cu - кучевые, Cb - кучево-дождевые. Подробнее классификацию облаков см. в Атласе облаков (PDF).
T - Температура воздуха - температура, измеренная на высоте 2 м над землей.
Td - Температура точки росы - температура, при понижении до которой содержащийся в воздухе водяной пар достигнет насыщения.
f - Относительная влажность воздуха - влажноcть воздуха, измеренная на высоте 2 м над землей.
Te - Эффективная температура - температура, которую ощущает одетый по сезону человек в тени. Характеристика душности погоды. При расчете учитывается влияние влажности воздуха и скорости ветра на теплоощущения человека.
Tes - Эффективная температура на солнце - температура, которую ощущает человек, с поправкой на солнечный нагрев. Характеристика знойности погоды. Зависит от высоты солнца над горизонтом, облачности и скорости ветра. Ночью, в пасмурную погоду, а также при ветре 12 м/с и более поправка равна нулю.
P - Атмосферное давление - приведенное к уровню моря атмосферное давление.
Po - Атмосферное давление - измеренное на уровне метеостанции атмосферное давление.
Tmin - Минимальная температура - минимум температуры воздуха на высоте 2 м над землей.
Tmax - Максимальная температура - максимум температуры воздуха на высоте 2 м над землей.
R - Количество осадков - Количество выпавших осадков за период времени, мм. При наведении курсора мыши на число - период времени, за который выпало указанное количество осадков.
R24 - Количество осадков - Количество выпавших осадков за 24 часа, мм.
S - Снежный покров - Высота снежного покрова, см. При наведении курсора мыши на число - состояние снежного покрова и степень покрытия местности в баллах.